This demonstration page uses our WeatherBlox Daily Observations layout. Learn more.

Left ArrowRight Arrow

39.01783, -85.05884

Hourly Observations for August 10, 2021

Temp ( °F °C ) Dew Point ( °F °C ) Humidity (%) Winds ( mph kmh ) Pressure ( in mb ) Visibility ( mi km ) Precip ( " mm )
12:52 am 00:52 Mostly Clear 72 22.2 67 19.4 84 84 S 12 19 30.01 1016 10 16 0.00 0.00
1:52 am 01:52 Mostly Clear 72 22.2 67 19.4 84 84 S 12 19 30.01 1016 10 16 0.00 0.00
2:52 am 02:52 Mostly Clear 72 22.2 68 20 87 87 SSW 8 13 30.02 1017 10 16 0.00 0.00
3:52 am 03:52 Partly Cloudy 73 22.8 68 20 84 84 SSW 10 17 30.02 1017 10 16 0.00 0.00
4:52 am 04:52 Mostly Clear 73 22.8 68 20 84 84 SSW 9 15 30.02 1017 10 16 0.00 0.00
5:52 am 05:52 Mostly Clear 72 22.2 68 20 87 87 SSW 10 17 30.02 1017 10 16 0.00 0.00
6:52 am 06:52 Mostly Sunny 73 22.8 69 20.6 87 87 SSW 10 17 30.03 1017 9 14 0.00 0.00
7:52 am 07:52 Partly Cloudy 74 23.3 69 20.6 85 85 SSW 10 17 30.04 1017 10 16 0.00 0.00
8:06 am 08:06 Partly Cloudy with Nearby Thunderstorms 75 23.9 70 21.1 84 84 SSW 12 19 30.04 1017 10 16 0.00 0.00
8:18 am 08:18 Mostly Cloudy with Thunderstorms 76 24.4 70 21.1 82 82 SW 10 17 30.03 1017 9 14 0.00 0.00
8:52 am 08:52 Cloudy with Thunderstorms 76 24.4 70 21.1 82 82 NNW 14 22 30.08 1019 8 13 0.00 0.00
8:54 am 08:54 Cloudy with Thunderstorms 76 24.4 70 21.1 82 82 NNW 12 19 30.06 1018 7 11 0.00 0.00
9:06 am 09:06 Cloudy with Thunderstorms 74 23.3 70 21.1 88 88 NNW 5 7 30.08 1019 2 3 0.00 0.00
9:15 am 09:15 Cloudy with Thunderstorms 74 23.3 70 21.1 88 88 WSW 9 15 30.08 1019 2 2 0.07 1.78
9:21 am 09:21 Cloudy with Strong Thunderstorms 73 22.8 70 21.1 90 90 S 14 22 30.05 1018 1 2 0.25 6.35
9:29 am 09:29 Cloudy with Strong Thunderstorms 73 22.8 69 20.6 87 87 SSW 13 20 30.06 1018 6 10 0.35 8.89
9:37 am 09:37 Cloudy with Thunderstorms 73 22.8 70 21.1 90 90 S 12 19 30.07 1018 6 10 0.35 8.89
9:52 am 09:52 Cloudy with Thunderstorms 74 23.3 71 21.7 91 91 S 13 20 30.06 1018 9 14 0.35 8.89
9:55 am 09:55 Cloudy with Light Rain 74 23.3 71 21.7 91 91 S 12 19 30.06 1018 10 16 0.00 0.00
10:25 am 10:25 Cloudy with Nearby Thunderstorms 74 23.3 70 21.1 88 88 SSW 12 19 30.07 1018 10 16 0.00 0.00
10:39 am 10:39 Cloudy with Light Rain 74 23.3 70 21.1 88 88 SW 12 19 30.07 1018 7 11 0.00 0.00
10:52 am 10:52 Cloudy with Light Rain 74 23.3 71 21.7 91 91 S 14 22 30.08 1019 7 11 0.01 0.25
11:52 am 11:52 Cloudy 73 22.8 68 20 84 84 SSW 10 17 30.06 1018 10 16 0.00 0.00
12:52 pm 12:52 Cloudy 75 23.9 71 21.7 88 88 SSW 14 22 30.04 1017 10 16 0.00 0.00
1:52 pm 13:52 Cloudy 78 25.6 71 21.7 79 79 SW 9 15 30.03 1017 10 16 0.00 0.00
2:52 pm 14:52 Cloudy 79 26.1 71 21.7 77 77 SSW 9 15 30.02 1017 10 16 0.00 0.00
3:52 pm 15:52 Mostly Cloudy 82 27.8 74 23.3 77 77 SSW 10 17 30.01 1016 10 16 0.00 0.00
4:52 pm 16:52 Mostly Cloudy 83 28.3 74 23.3 74 74 S 9 15 30.00 1016 10 16 0.00 0.00
5:52 pm 17:52 Partly Cloudy 86 30 76 24.4 72 72 S 10 17 30.00 1016 10 16 0.00 0.00
6:38 pm 18:38 Partly Cloudy with Nearby Thunderstorms 86 30 76 24.4 72 72 SSW 8 13 29.96 1014 10 16 0.00 0.00
6:52 pm 18:52 Partly Cloudy with Nearby Thunderstorms 87 30.6 76 24.4 70 70 SSW 12 19 29.96 1015 10 16 0.00 0.00
7:12 pm 19:12 Partly Cloudy 86 30 76 24.4 72 72 SSW 9 15 29.96 1014 10 16 0.00 0.00
7:52 pm 19:52 Partly Cloudy 85 29.4 76 24.4 75 75 S 9 15 29.97 1015 10 16 0.00 0.00
8:52 pm 20:52 Partly Cloudy 82 27.8 75 23.9 79 79 S 7 11 29.98 1015 10 16 0.00 0.00
9:52 pm 21:52 Partly Cloudy 80 26.7 74 23.3 82 82 S 7 11 29.99 1016 10 16 0.00 0.00
10:52 pm 22:52 Partly Cloudy 79 26.1 73 22.8 82 82 S 8 13 29.98 1015 10 16 0.00 0.00
11:52 pm 23:52 Mostly Cloudy 80 26.7 74 23.3 82 82 SSW 9 15 30.01 1016 10 16 0.00 0.00

Powered by AerisWeather